Weather Roundup
Issued by NWS

Home | Current Version | Previous Version | Text Only | Print | Product List | Glossary On
Versions: 1 2 3 4 5 6 7 8 9 10 11 12 13 14 15 16 17 18 19 20 21 22 23 24 25 26 27 28 29 30 31 32 33 34 35 36 37 38 39 40 41 42 43 44 45 46 47 48 49 50
000
NZUS93 KARX 261710
HRRWXR

CURRENT HOURLY OBSERVATIONS ACROSS
MUCH OF THE UPPER MISSISSIPPI VALLEY
NATIONAL WEATHER SERVICE LA CROSSE WI
1200 PM CDT SAT JUL 26 2014


...SOUTHEAST MINNESOTA...


CITY           SKY/WX    TMP DP  RH WIND       PRES   REMARKS
ROCHESTER      CLOUDY    75  70  84 N5        29.85F HAZE
ROCHESTER/MAYO CLOUDY    74  69  85 CALM      29.85F
WINONA         CLOUDY    73  70  88 CALM      29.83R
AUSTIN         LGT RAIN  73  72  94 NE3       29.84R
ALBERT LEA     CLOUDY    73  72  94 N6        29.85R FOG
DODGE CENTER   CLOUDY    75  72  88 N6        29.86S
PRESTON        CLOUDY    71  71 100 N5        29.86S FOG
OWATONNA       CLOUDY    75  70  83 NW6       29.87R
FARIBAULT      CLOUDY    81  68  65 W5        29.87R
$$

...ELSEWHERE IN MINNESOTA...


CITY           SKY/WX    TMP DP  RH WIND       PRES   REMARKS
MINNEAPOLIS    PTSUNNY   80  60  50 CALM      29.83R
INTNL FALLS    SUNNY     76  56  49 W8        29.75F
DULUTH         SUNNY     79  54  41 NW8       29.79S
RED WING       PTSUNNY   81  68  65 SW3       29.82R
REDWOOD FALLS  LGT RAIN  72  69  90 S13       29.85S
MANKATO        CLOUDY    73  68  83 W8        29.89R
WORTHINGTON    CLOUDY    73  70  88 SW5       29.98R
FAIRMONT       CLOUDY    73  64  73 NW12      29.92R
$$

...SOUTHWEST WISCONSIN...


CITY           SKY/WX    TMP DP  RH WIND       PRES   REMARKS
LA CROSSE      CLOUDY    75  68  78 NW3       29.82F
PRAIRIE DU CHI CLOUDY    73  66  78 SE5       29.81R
BOSCOBEL       CLOUDY    77  67  71 VRB7      29.81F
LONE ROCK      CLOUDY    77  67  71 CALM      29.81F
PLATTEVILLE    CLOUDY    76  69  77 SE6       29.81F
FORT MC COY    CLOUDY    75  67  75 NW6       29.84R
CAMP DOUGLAS   PTSUNNY   77  72  83 VRB6      29.82S
VIROQUA        PTSUNNY   77  73  87 N5        29.83F
WIS DELLS      CLOUDY    78  65  65 S5        29.82F
$$

...ELSEWHERE IN WISCONSIN...


CITY           SKY/WX    TMP DP  RH WIND       PRES   REMARKS
MILWAUKEE      PTSUNNY   74  62  66 SE12      29.82F
MADISON        CLOUDY    77  66  68 SW6       29.84F
GREEN BAY      CLOUDY    74  67  78 SW6       29.79F
EAU CLAIRE     MOSUNNY   82  63  52 NW7       29.81R
BLACK RVR FLS  PTSUNNY   78  69  72 NW5       29.81F
MEDFORD        MOSUNNY   77  65  67 W8        29.83R
WAUSAU         MOSUNNY   77  67  71 W14       29.80F
WIS RAPIDS     CLOUDY    75  67  76 W8        29.83S
MARSHFIELD     PTSUNNY   77  68  73 NW9       29.82F
RICE LAKE      SUNNY     81  53  38 CALM      29.83S
$$

...NORTHEAST IOWA...


CITY           SKY/WX    TMP DP  RH WIND       PRES   REMARKS
WATERLOO       PTSUNNY   81  71  71 VRB7      29.81R
DUBUQUE        MOSUNNY   76  69  79 E7        29.82F
DECORAH        CLOUDY    73  70  88 N5        29.85R
MASON CITY     CLOUDY    78  72  81 CALM      29.88R
CHARLES CITY   CLOUDY    73  70  88 E5        29.83F
OELWEIN        PTSUNNY   79  72  78 E6        29.84R
$$

...ELSEWHERE IN IOWA...


CITY           SKY/WX    TMP DP  RH WIND       PRES   REMARKS
DES MOINES     PTSUNNY   84  70  62 E8        29.84S
IOWA CITY      MOSUNNY   79  71  76 NE7       29.84F
FORT DODGE     MOSUNNY   81  72  74 CALM      29.87R
MARSHALLTOWN   MOSUNNY   78  71  79 S12       29.82F
CEDAR RAPIDS   MOSUNNY   78  70  76 SE8       29.82F
$$

...NORTHERN ILLINOIS...


CITY           SKY/WX    TMP DP  RH WIND       PRES   REMARKS
CHICAGO-OHARE  CLOUDY    78  64  61 W6        29.85R
DUPAGE         CLOUDY    78  67  68 VRB5      29.85S
CHICAGO-MIDWAY CLOUDY    78  67  68 W9        29.85S
MOLINE         CLOUDY    77  67  71 NE7       29.85R
ROCKFORD       PTSUNNY   80  66  62 N9        29.85F
STERLING       MOSUNNY   81  70  69 E6        29.84R
PEORIA         CLOUDY    79  71  76 W6        29.84F
$$

NOTE: "FAIR" INDICATES FEW OR NO CLOUDS BELOW 12,000 FEET WITH NO
SIGNIFICANT WEATHER AND/OR OBSTRUCTIONS TO VISIBILITY. WIND
SPEEDS ARE IN MILES-PER-HOUR.



USA.gov is the U.S. government's official web portal to all federal, state and local government web resources and services.